Hourly Data Report for November 10, 2020

OTTAWA INTL A
ONTARIO
Current Station Operator: NAVCAN

45°19'00.000" N
75°40'00.000" W
114.90 m
6106001
71628
YOW

Download Data

Hourly Data (November 2020)
Hourly Data Report for November 10, 2020
TIME Temp Definition
°C
Dew Point Definition
°C
Rel Hum Definition
%
Wind Dir Definition
10's deg

Wind Spd Definition
km/h
Visibility Definition
km
Stn Press Definition
kPa
Hmdx Definition


Wind Chill Definition


Weather Definition


00:00 11.9 5.7 66 18 11 24.1 100.52     LegendNANA
01:00 11.9 5.7 66 18 9 24.1 100.48     Clear
02:00 11.4 5.7 68 17 10 24.1 100.44     LegendNANA
03:00 10.3 5.8 73 17 14 24.1 100.39     LegendNANA
04:00 9.8 5.7 76 18 12 24.1 100.37     Clear
05:00 9.3 5.9 79 17 12 24.1 100.33     LegendNANA
06:00 9.3 6.5 82 18 13 24.1 100.35     LegendNANA
07:00 9.7 7.5 86 19 10 24.1 100.32     Clear
08:00 11.7 9.0 83 19 12 24.1 100.32     LegendNANA
09:00 14.5 10.4 76 18 13 24.1 100.28     LegendNANA
10:00 16.1 10.6 70 20 14 24.1 100.22     Mostly Cloudy
11:00 19.9 11.3 58 21 21 24.1 100.16     LegendNANA
12:00 21.8 11.6 52 20 22 24.1 100.10     LegendNANA
13:00 23.1 11.8 49 21 24 24.1 100.03 25   Mostly Cloudy
14:00 22.6 11.9 51 21 22 24.1 100.00 25   LegendNANA
15:00 21.4 12.1 55 20 13 24.1 99.99     LegendNANA
16:00 20.0 11.6 58 20 13 24.1 99.99     Mostly Cloudy
17:00 19.1 11.6 61 19 14 24.1 99.99     LegendNANA
18:00 17.8 11.2 65 18 16 24.1 99.98     LegendNANA
19:00 16.5 11.1 70 18 9 24.1 99.94     Clear
20:00 15.9 11.1 73 18 10 24.1 99.92     LegendNANA
21:00 16.1 11.0 71 17 9 24.1 99.88     LegendNANA
22:00 16.8 11.7 71 17 13 24.1 99.84     Mostly Cloudy
23:00 16.9 11.7 71 20 9 24.1 99.78     LegendNANA

Notes on Data Quality.

Legend

  • E = Estimated
  • M = Missing
  • NA = Not Available*
  • [empty] = Indicates an unobserved value
Date modified: